Home   Weather   Radom   Past weeks

Flag for Poland Past Weather in Radom, Poland — Yesterday and Last 2 Weeks

Now
48 °F

Passing clouds.


Feels Like: 47 °F
Forecast: 40 / 56 °F
Wind: 3 mph from Northeast

Location: Kielce

Current Time: Apr 30, 2017 at 9:00:36 pm

Latest Report: Apr 30, 2017 at 8:00 pm


Visibility: 25 mi

Pressure: 30.16 "Hg

Humidity: 58%

Dew Point: 34 °F

Location of RadomLocation

Past Weather in Radom — Graph

°F

Radom Temperature Yesterday

Maximum temperature yesterday: 51 °F (at 6:00 pm)
Minimum temperature yesterday: 38 °F (at 5:00 am)
Average temperature yesterday: 43 °F

High & Low Weather Summary for the Past Weeks

 TemperatureHumidityPressure
High64 °F (Apr 25, 2:00 pm)97% (Apr 30, 7:00 am)30.44 "Hg (Apr 30, 7:00 am)
Low24 °F (Apr 21, 5:00 am)39% (Apr 25, 1:00 pm)29.68 "Hg (Apr 25, 2:00 pm)
Average40 °F75%30.01 "Hg
* Reported Apr 15 7:00 pm — Apr 30 7:00 pm, Radom, Weather by CustomWeather, © 2017

Note: Actual official high and low records may vary slightly from our data, if they occured in-between our weather recording intervals... More about our weather records

Advertising

Radom Weather History for the Previous 24 Hours

Scroll right to see more
 ConditionsComfort  
Time TempWeatherWind HumidityBarometerVisibility
7:00 pm
Sun, Apr 30
50 °FScattered clouds.3 mph54%30.15 "Hg25 mi
6:00 pm51 °FScattered clouds.2 mph53%30.16 "Hg25 mi
5:00 pm52 °FOvercast.3 mph53%30.16 "Hg22 mi
4:00 pm52 °FOvercast.2 mph49%30.17 "Hg22 mi
3:00 pm52 °FOvercast.1 mph49%30.17 "Hg19 mi
2:00 pm51 °FOvercast.3 mph53%30.18 "Hg19 mi
1:00 pm50 °FOvercast.2 mph56%30.18 "Hg16 mi
12:00 pm49 °FOvercast.2 mph57%30.18 "Hg16 mi
11:00 am49 °FOvercast.2 mph55%30.17 "Hg16 mi
10:00 am48 °FOvercast.3 mph58%30.17 "Hg22 mi
9:00 am47 °FPassing clouds.3 mph66%30.17 "Hg17 mi
8:00 am44 °FPassing clouds.3 mph81%30.16 "Hg10 mi
7:00 am40 °FFog.2 mph97%30.16 "Hg2 mi
6:00 am34 °FFog.1 mph96%30.17 "Hg1 mi
5:00 am32 °FFog.1 mph95%30.15 "Hg0 mi
4:00 am32 °FFog.1 mph95%30.16 "Hg0 mi
3:00 am32 °FFog.1 mph93%30.14 "Hg0 mi
2:00 am36 °FFog.No wind92%30.11 "Hg1 mi
1:00 am38 °FFog.1 mph90%30.10 "Hg3 mi
12:00 am40 °FFog.2 mph85%30.10 "Hg6 mi
11:00 pm
Sat, Apr 29
42 °FFog.3 mph82%30.09 "Hg5 mi
10:00 pm41 °FFog.1 mph90%30.09 "Hg2 mi
9:00 pm44 °FOvercast.1 mph89%30.08 "Hg8 mi
Weather by CustomWeather, © 2017

See weather overviewHow to use our weather pages